Hourly Data Report for July 16, 2021

LYNN LAKE
MANITOBA
Current Station Operator: NAVCAN

56°51'50.000" N
101°04'34.000" W
356.60 m
5061645
71078
YYL

Download Data

Hourly Data (July 2021)
Hourly Data Report for July 16, 2021
TIME
LST
Temp Definition
°C
Dew Point Definition
°C
Rel Hum Definition
%
Precip. Amount Definition
mm

Wind Dir Definition
10's deg

Wind Spd Definition
km/h
Visibility Definition
km
Stn Press Definition
kPa
Hmdx Definition


Wind Chill Definition


Weather Definition


00:00 21.5 14.1 62 0.0 34 24 6.4 96.28 25   Haze
01:00 19.8 14.9 73 0.0 33 13 4.8 96.25     Haze
02:00 19.0 15.1 78 0.0 19 9 4.8 96.12     Haze
03:00 19.1 14.8 76 0.0 15 9 4.8 96.06     Haze
04:00 17.2 14.7 85 0.0 24 9 4.8 96.09     Fog
05:00 18.5 14.0 75 0.0 27 15 4.8 96.15     Haze
06:00 18.1 15.0 82 0.0 31 24 4.0 96.24     Haze
07:00 17.8 14.7 82 0.0 33 24 9.7 96.31     Haze
08:00 17.9 14.1 78 0.0 32 28 16.1 96.44     LegendNANA
09:00 19.1 13.3 69 0.0 33 30 16.1 96.56     LegendNANA
10:00 19.7 12.1 61 0.0 33 26 16.1 96.66     LegendNANA
11:00 20.5 11.2 55 0.0 33 24 16.1 96.73     LegendNANA
12:00 20.4 11.0 55 0.0 31 24 16.1 96.81     LegendNANA
13:00 20.6 10.7 53 0.0 31 26 16.1 96.90     LegendNANA
14:00 20.7 10.2 51 0.0 32 34 16.1 96.98     LegendNANA
15:00 19.7 9.8 52 0.0 33 28 16.1 97.07     LegendNANA
16:00 18.8 9.7 55 0.0 34 28 16.1 97.17     LegendNANA
17:00 17.5 9.6 60 0.0 35 28 16.1 97.26     LegendNANA
18:00 16.4 8.5 59 0.0 35 22 16.1 97.36     LegendNANA
19:00 14.7 7.0 60 0.0 36 32 16.1 97.46     LegendNANA
20:00 13.0 5.7 61 0.0 35 22 16.1 97.54     LegendNANA
21:00 11.6 4.8 63 0.0 36 17 16.1 97.64     LegendNANA
22:00 10.4 4.4 66 0.0 2 18 16.1 97.76     LegendNANA
23:00 8.9 4.2 72 0.0 2 13 16.1 97.85     LegendNANA

Notes on Data Quality.

Legend

  • E = Estimated
  • M = Missing
  • NA = Not Available*
  • [empty] = Indicates an unobserved value
Date modified: